TimeEST,TemperatureF,Dew PointF,Humidity,Sea Level PressureIn,VisibilityMPH,Wind Direction,Wind SpeedMPH,Gust SpeedMPH,PrecipitationIn,Events,Conditions,WindDirDegrees,DateUTC
12:56 AM,28.9,28.0,96,29.52,-9999.0,Calm,Calm,-,N/A,,Unknown,0,2013-02-12 05:56:00
1:56 AM,30.0,30.0,100,29.49,-9999.0,Calm,Calm,-,0.02,,Unknown,0,2013-02-12 06:56:00
2:56 AM,28.9,28.0,96,29.48,-9999.0,NNW,6.9,-,0.04,,Unknown,330,2013-02-12 07:56:00
3:56 AM,30.0,28.0,92,29.48,-9999.0,NNW,9.2,-,N/A,,Unknown,330,2013-02-12 08:56:00
4:56 AM,30.0,28.0,92,29.47,-9999.0,Variable,5.8,-,N/A,,Unknown,0,2013-02-12 09:56:00
5:56 AM,28.9,27.0,92,29.46,-9999.0,Variable,4.6,-,N/A,,Unknown,0,2013-02-12 10:56:00
6:56 AM,28.9,27.0,92,29.47,-9999.0,WNW,4.6,-,N/A,,Unknown,300,2013-02-12 11:56:00
7:56 AM,30.0,26.1,85,29.47,-9999.0,NW,9.2,-,N/A,,Unknown,320,2013-02-12 12:56:00
8:56 AM,30.0,27.0,88,29.48,-9999.0,Variable,5.8,-,N/A,,Unknown,0,2013-02-12 13:56:00
9:56 AM,30.9,27.0,85,29.48,-9999.0,Variable,4.6,-,N/A,,Unknown,0,2013-02-12 14:56:00
10:56 AM,32.0,27.0,82,29.47,-9999.0,Variable,3.5,-,N/A,,Unknown,0,2013-02-12 15:56:00
11:56 AM,33.1,28.0,82,29.47,-9999.0,Variable,6.9,-,N/A,,Unknown,0,2013-02-12 16:56:00
12:56 PM,33.1,27.0,78,29.47,-9999.0,Variable,3.5,-,N/A,,Unknown,0,2013-02-12 17:56:00
1:56 PM,34.0,27.0,75,29.48,-9999.0,NW,11.5,26.5,N/A,,Unknown,310,2013-02-12 18:56:00
2:56 PM,33.1,28.0,82,29.51,-9999.0,NW,10.4,23.0,N/A,,Unknown,310,2013-02-12 19:56:00
3:56 PM,32.0,27.0,82,29.52,-9999.0,WNW,8.1,-,N/A,,Unknown,300,2013-02-12 20:56:00
4:56 PM,32.0,27.0,82,29.52,-9999.0,Variable,6.9,-,N/A,,Unknown,0,2013-02-12 21:56:00
5:56 PM,32.0,28.0,85,29.55,-9999.0,Variable,6.9,-,N/A,,Unknown,0,2013-02-12 22:56:00
6:56 PM,32.0,28.0,85,29.57,-9999.0,WNW,10.4,21.9,N/A,,Unknown,300,2013-02-12 23:56:00
7:56 PM,30.9,27.0,85,29.61,-9999.0,Variable,6.9,-,N/A,,Unknown,0,2013-02-13 00:56:00
8:56 PM,30.0,26.1,85,29.63,-9999.0,NW,8.1,26.5,N/A,,Unknown,310,2013-02-13 01:56:00
9:56 PM,30.0,26.1,85,29.65,-9999.0,Variable,6.9,-,N/A,,Unknown,0,2013-02-13 02:56:00
10:56 PM,30.0,25.0,82,29.66,-9999.0,Variable,6.9,-,N/A,,Unknown,0,2013-02-13 03:56:00
11:56 PM,30.0,25.0,82,29.66,-9999.0,Variable,4.6,17.3,N/A,,Unknown,0,2013-02-13 04:56:00